Time,TemperatureF,DewpointF,PressureIn,WindDirection,WindDirectionDegrees,WindSpeedMPH,WindSpeedGustMPH,Humidity,HourlyPrecipIn,Conditions,Clouds,dailyrainin,SoftwareType,DateUTC
2013-02-27 00:00:00,32.8,32.3,29.49,ESE,103,7.0,11.0,98,0.00,,,0.22,WUHU216DAVISVP2,2013-02-27 05:00:00,
2013-02-27 00:05:00,32.8,32.3,29.49,ENE,67,5.0,12.0,98,0.00,,,0.22,WUHU216DAVISVP2,2013-02-27 05:05:00,
2013-02-27 00:10:00,32.8,32.3,29.49,East,83,5.0,12.0,98,0.00,,,0.22,WUHU216DAVISVP2,2013-02-27 05:10:00,
2013-02-27 00:15:00,32.8,32.3,29.48,East,98,7.0,11.0,98,0.00,,,0.22,WUHU216DAVISVP2,2013-02-27 05:15:00,
2013-02-27 00:20:00,32.8,32.3,29.48,ESE,112,6.0,12.0,98,0.00,,,0.22,WUHU216DAVISVP2,2013-02-27 05:20:00,
2013-02-27 00:25:00,32.9,32.4,29.48,ENE,70,4.0,14.0,98,0.00,,,0.22,WUHU216DAVISVP2,2013-02-27 05:25:00,
2013-02-27 00:30:00,32.8,32.3,29.48,East,81,8.0,14.0,98,0.00,,,0.22,WUHU216DAVISVP2,2013-02-27 05:30:00,
2013-02-27 00:35:00,32.9,32.4,29.47,East,91,5.0,13.0,98,0.00,,,0.22,WUHU216DAVISVP2,2013-02-27 05:35:00,
2013-02-27 00:40:00,32.8,32.3,29.47,ENE,70,6.0,12.0,98,0.00,,,0.22,WUHU216DAVISVP2,2013-02-27 05:40:00,
2013-02-27 00:45:00,32.8,32.3,29.47,East,94,6.0,12.0,98,0.00,,,0.22,WUHU216DAVISVP2,2013-02-27 05:45:00,
2013-02-27 00:50:00,32.8,32.3,29.47,East,89,5.0,11.0,98,0.00,,,0.22,WUHU216DAVISVP2,2013-02-27 05:50:00,
2013-02-27 00:55:00,32.8,32.3,29.47,East,93,4.0,11.0,98,0.00,,,0.22,WUHU216DAVISVP2,2013-02-27 05:55:00,
2013-02-27 01:00:00,32.8,32.3,29.47,East,86,6.0,12.0,98,0.00,,,0.22,WUHU216DAVISVP2,2013-02-27 06:00:00,
2013-02-27 01:05:00,32.8,32.3,29.47,ESE,109,6.0,13.0,98,0.00,,,0.22,WUHU216DAVISVP2,2013-02-27 06:05:00,
2013-02-27 01:10:00,32.9,32.4,29.47,ENE,69,9.0,13.0,98,0.00,,,0.22,WUHU216DAVISVP2,2013-02-27 06:10:00,
2013-02-27 01:15:00,32.9,32.4,29.47,East,84,6.0,12.0,98,0.00,,,0.22,WUHU216DAVISVP2,2013-02-27 06:15:00,
2013-02-27 01:20:00,32.9,32.4,29.47,East,89,4.0,12.0,98,0.00,,,0.22,WUHU216DAVISVP2,2013-02-27 06:20:00,
2013-02-27 01:25:00,32.9,32.4,29.47,East,96,4.0,11.0,98,0.00,,,0.22,WUHU216DAVISVP2,2013-02-27 06:25:00,
2013-02-27 01:30:00,32.9,32.4,29.47,East,95,4.0,11.0,98,0.00,,,0.22,WUHU216DAVISVP2,2013-02-27 06:30:00,
2013-02-27 01:35:00,32.9,32.4,29.47,ESE,107,4.0,10.0,98,0.00,,,0.22,WUHU216DAVISVP2,2013-02-27 06:35:00,
2013-02-27 01:40:00,32.8,32.3,29.46,East,89,7.0,10.0,98,0.00,,,0.22,WUHU216DAVISVP2,2013-02-27 06:40:00,
2013-02-27 01:45:00,32.8,32.3,29.46,ESE,105,2.0,9.0,98,0.00,,,0.22,WUHU216DAVISVP2,2013-02-27 06:45:00,
2013-02-27 01:50:00,32.7,32.2,29.47,East,86,3.0,8.0,98,0.00,,,0.22,WUHU216DAVISVP2,2013-02-27 06:50:00,
2013-02-27 01:55:00,32.7,32.2,29.46,East,90,3.0,7.0,98,0.00,,,0.22,WUHU216DAVISVP2,2013-02-27 06:55:00,
2013-02-27 02:00:00,32.7,32.2,29.46,ENE,67,2.0,7.0,98,0.00,,,0.22,WUHU216DAVISVP2,2013-02-27 07:00:00,
2013-02-27 02:05:00,32.7,32.2,29.46,ENE,73,2.0,7.0,98,0.00,,,0.22,WUHU216DAVISVP2,2013-02-27 07:05:00,
2013-02-27 02:10:00,32.7,32.2,29.46,East,86,3.0,6.0,98,0.00,,,0.22,WUHU216DAVISVP2,2013-02-27 07:10:00,
2013-02-27 02:15:00,32.7,32.2,29.46,East,85,2.0,6.0,98,0.00,,,0.22,WUHU216DAVISVP2,2013-02-27 07:15:00,
2013-02-27 02:20:00,32.8,32.3,29.47,East,82,5.0,6.0,98,0.00,,,0.22,WUHU216DAVISVP2,2013-02-27 07:20:00,
2013-02-27 02:25:00,32.8,32.3,29.46,ESE,108,2.0,6.0,98,0.00,,,0.22,WUHU216DAVISVP2,2013-02-27 07:25:00,
2013-02-27 02:30:00,32.8,32.3,29.46,East,91,2.0,7.0,98,0.00,,,0.22,WUHU216DAVISVP2,2013-02-27 07:30:00,
2013-02-27 02:35:00,32.8,32.3,29.46,ESE,105,3.0,7.0,98,0.00,,,0.22,WUHU216DAVISVP2,2013-02-27 07:35:00,
2013-02-27 02:40:00,32.8,32.3,29.46,ESE,105,2.0,6.0,98,0.00,,,0.22,WUHU216DAVISVP2,2013-02-27 07:40:00,
2013-02-27 02:45:00,32.8,32.3,29.46,East,100,4.0,6.0,98,0.00,,,0.22,WUHU216DAVISVP2,2013-02-27 07:45:00,
2013-02-27 02:50:00,32.8,32.3,29.45,ESE,108,4.0,6.0,98,0.00,,,0.22,WUHU216DAVISVP2,2013-02-27 07:50:00,
2013-02-27 02:55:00,32.8,32.3,29.45,East,86,2.0,6.0,98,0.00,,,0.22,WUHU216DAVISVP2,2013-02-27 07:55:00,
2013-02-27 03:00:00,32.8,32.3,29.45,East,94,2.0,5.0,98,0.00,,,0.22,WUHU216DAVISVP2,2013-02-27 08:00:00,
2013-02-27 03:05:00,32.8,32.3,29.45,East,95,3.0,5.0,98,0.00,,,0.22,WUHU216DAVISVP2,2013-02-27 08:05:00,
2013-02-27 03:10:00,32.8,32.3,29.45,East,99,2.0,6.0,98,0.00,,,0.22,WUHU216DAVISVP2,2013-02-27 08:10:00,
2013-02-27 03:15:00,32.7,32.2,29.45,ESE,114,2.0,6.0,98,0.00,,,0.22,WUHU216DAVISVP2,2013-02-27 08:15:00,
2013-02-27 03:20:00,32.8,32.3,29.44,East,91,4.0,5.0,98,0.00,,,0.22,WUHU216DAVISVP2,2013-02-27 08:20:00,
2013-02-27 03:25:00,32.7,32.2,29.44,East,94,1.0,7.0,98,0.00,,,0.22,WUHU216DAVISVP2,2013-02-27 08:25:00,
2013-02-27 03:30:00,32.7,32.2,29.44,East,91,3.0,7.0,98,0.00,,,0.22,WUHU216DAVISVP2,2013-02-27 08:30:00,
2013-02-27 03:35:00,32.7,32.2,29.44,East,94,4.0,6.0,98,0.00,,,0.22,WUHU216DAVISVP2,2013-02-27 08:35:00,
2013-02-27 03:40:00,32.7,32.2,29.44,East,91,4.0,6.0,98,0.00,,,0.22,WUHU216DAVISVP2,2013-02-27 08:40:00,
2013-02-27 03:45:00,32.7,32.2,29.44,East,83,2.0,5.0,98,0.00,,,0.22,WUHU216DAVISVP2,2013-02-27 08:45:00,
2013-02-27 03:50:00,32.7,32.2,29.44,East,90,1.0,5.0,98,0.00,,,0.22,WUHU216DAVISVP2,2013-02-27 08:50:00,
2013-02-27 03:55:00,32.7,32.2,29.44,East,100,1.0,5.0,98,0.00,,,0.22,WUHU216DAVISVP2,2013-02-27 08:55:00,
2013-02-27 04:00:00,32.8,32.3,29.44,ESE,107,2.0,5.0,98,0.00,,,0.22,WUHU216DAVISVP2,2013-02-27 09:00:00,
2013-02-27 04:05:00,32.8,32.3,29.44,East,96,2.0,5.0,98,0.00,,,0.22,WUHU216DAVISVP2,2013-02-27 09:05:00,
2013-02-27 04:10:00,32.8,32.3,29.44,East,91,1.0,5.0,98,0.00,,,0.22,WUHU216DAVISVP2,2013-02-27 09:10:00,
2013-02-27 04:15:00,32.7,32.2,29.44,East,84,2.0,5.0,98,0.00,,,0.22,WUHU216DAVISVP2,2013-02-27 09:15:00,
2013-02-27 04:20:00,32.8,32.3,29.44,ESE,121,2.0,5.0,98,0.00,,,0.22,WUHU216DAVISVP2,2013-02-27 09:20:00,
2013-02-27 04:25:00,32.8,32.3,29.44,East,84,2.0,3.0,98,0.00,,,0.22,WUHU216DAVISVP2,2013-02-27 09:25:00,
2013-02-27 04:30:00,32.8,32.3,29.44,ESE,105,3.0,4.0,98,0.00,,,0.22,WUHU216DAVISVP2,2013-02-27 09:30:00,
2013-02-27 04:35:00,32.8,32.3,29.45,East,99,2.0,4.0,98,0.00,,,0.22,WUHU216DAVISVP2,2013-02-27 09:35:00,
2013-02-27 04:40:00,32.8,32.3,29.44,East,101,1.0,4.0,98,0.00,,,0.22,WUHU216DAVISVP2,2013-02-27 09:40:00,
2013-02-27 04:45:00,32.8,32.3,29.44,ESE,110,3.0,4.0,98,0.00,,,0.22,WUHU216DAVISVP2,2013-02-27 09:45:00,
2013-02-27 04:50:00,32.8,32.5,29.45,ESE,117,1.0,4.0,99,0.00,,,0.22,WUHU216DAVISVP2,2013-02-27 09:50:00,
2013-02-27 04:55:00,32.8,32.5,29.45,ESE,114,1.0,3.0,99,0.00,,,0.22,WUHU216DAVISVP2,2013-02-27 09:55:00,
2013-02-27 05:00:00,32.8,32.3,29.45,ESE,109,2.0,3.0,98,0.00,,,0.22,WUHU216DAVISVP2,2013-02-27 10:00:00,
2013-02-27 05:05:00,32.8,32.3,29.45,ESE,108,1.0,4.0,98,0.00,,,0.22,WUHU216DAVISVP2,2013-02-27 10:05:00,